• In Österreich
  • Länderverzeichnis
  • Für 7 Tage
  • Wassertemperatur
  • Satellitenkarten
  • Wetterkarte
  • News
  • Widgets
  • user-avatar
    Anmelden

    Stündliche Wetter Ketou

    Heute, 24 November, Freitag

    Zeit Temperatur Niederschläge Wind Luftdruck Luftfeuchtigkeit
    00:00 +27°C° 0 mm 1 m/S 746 mmHg 85%
    01:00 +27°C° 0 mm 1 m/S 746 mmHg 86%
    02:00 +27°C° 0 mm 1 m/S 746 mmHg 86%
    03:00 +26°C° 0 mm 1 m/S 745 mmHg 87%
    04:00 +26°C° 0 mm 1 m/S 745 mmHg 87%
    05:00 +26°C° 0 mm 1 m/S 745 mmHg 87%
    06:00 +26°C° 0 mm 1 m/S 746 mmHg 88%
    07:00 +28°C° 0 mm 1 m/S 746 mmHg 78%
    08:00 +30°C° 0 mm 1 m/S 746 mmHg 68%
    09:00 +32°C° 0 mm 1 m/S 747 mmHg 57%
    10:00 +34°C° 0 mm 1 m/S 746 mmHg 50%
    11:00 +36°C° 0 mm 1 m/S 746 mmHg 42%
    12:00 +39°C° 0 mm 1 m/S 745 mmHg 34%
    13:00 +39°C° 0 mm 1 m/S 745 mmHg 32%
    14:00 +39°C° 0 mm 1 m/S 744 mmHg 30%
    15:00 +39°C° 0 mm 1 m/S 743 mmHg 28%
    16:00 +37°C° 0 mm 2 m/S 743 mmHg 34%
    17:00 +35°C° 0 mm 2 m/S 744 mmHg 40%
    18:00 +34°C° 0 mm 3 m/S 744 mmHg 46%
    19:00 +31°C° 0 mm 3 m/S 744 mmHg 56%
    20:00 +30°C° 0 mm 3 m/S 745 mmHg 65%
    21:00 +29°C° 0 mm 3 m/S 746 mmHg 74%
    22:00 +28°C° 0 mm 3 m/S 746 mmHg 77%
    23:00 +28°C° 0 mm 2 m/S 746 mmHg 79%

    Morgen, 25 November, Samstag

    Zeit Temperatur Niederschläge Wind Luftdruck Luftfeuchtigkeit
    00:00 +27°C° 0 mm 2 m/S 746 mmHg 82%
    01:00 +27°C° 0 mm 1 m/S 746 mmHg 84%
    02:00 +27°C° 0 mm 1 m/S 745 mmHg 86%
    03:00 +26°C° 0 mm 1 m/S 745 mmHg 88%
    04:00 +26°C° 0 mm 1 m/S 745 mmHg 90%
    05:00 +26°C° 0 mm 1 m/S 745 mmHg 91%
    06:00 +26°C° 0 mm 1 m/S 746 mmHg 93%
    07:00 +28°C° 0 mm 1 m/S 746 mmHg 83%
    08:00 +30°C° 0 mm 1 m/S 747 mmHg 74%
    09:00 +32°C° 0 mm 1 m/S 747 mmHg 64%
    10:00 +34°C° 0 mm 1 m/S 747 mmHg 56%
    11:00 +34°C° 0 mm 0 m/S 746 mmHg 48%
    12:00 +36°C° 0 mm 0 m/S 746 mmHg 40%
    13:00 +39°C° 0 mm 1 m/S 745 mmHg 37%
    14:00 +39°C° 0 mm 1 m/S 745 mmHg 35%
    15:00 +37°C° 0 mm 1 m/S 744 mmHg 33%
    16:00 +36°C° 0 mm 1 m/S 744 mmHg 38%
    17:00 +35°C° 0 mm 2 m/S 744 mmHg 43%
    18:00 +32°C° 0 mm 2 m/S 744 mmHg 49%
    19:00 +31°C° 0 mm 2 m/S 745 mmHg 57%
    20:00 +30°C° 0 mm 3 m/S 746 mmHg 66%
    21:00 +29°C° 0 mm 3 m/S 746 mmHg 74%
    22:00 +29°C° 0 mm 3 m/S 746 mmHg 77%
    23:00 +28°C° 0 mm 2 m/S 746 mmHg 80%

    übermorgen, 26 November, Sonntag

    Zeit Temperatur Niederschläge Wind Luftdruck Luftfeuchtigkeit
    00:00 +28°C° 0 mm 2 m/S 746 mmHg 83%
    01:00 +27°C° 0 mm 1 m/S 746 mmHg 85%
    02:00 +27°C° 0 mm 1 m/S 745 mmHg 87%
    03:00 +27°C° 0 mm 1 m/S 745 mmHg 89%
    04:00 +26°C° 0 mm 1 m/S 745 mmHg 90%
    05:00 +26°C° 0 mm 1 m/S 745 mmHg 91%
    06:00 +24°C° 0 mm 0 m/S 746 mmHg 92%
    07:00 +26°C° 0 mm 0 m/S 746 mmHg 81%
    08:00 +29°C° 0 mm 0 m/S 747 mmHg 70%
    09:00 +31°C° 0 mm 0 m/S 748 mmHg 59%
    10:00 +34°C° 0 mm 1 m/S 747 mmHg 52%
    11:00 +36°C° 0 mm 1 m/S 747 mmHg 45%
    12:00 +39°C° 0 mm 1 m/S 746 mmHg 38%
    13:00 +39°C° 0 mm 1 m/S 745 mmHg 34%
    14:00 +39°C° 0 mm 1 m/S 745 mmHg 31%
    15:00 +39°C° 0 mm 2 m/S 744 mmHg 28%
    16:00 +37°C° 0 mm 2 m/S 744 mmHg 32%
    17:00 +36°C° 0 mm 2 m/S 744 mmHg 36%
    18:00 +34°C° 0 mm 2 m/S 745 mmHg 40%
    19:00 +32°C° 0 mm 2 m/S 745 mmHg 51%
    20:00 +30°C° 0 mm 2 m/S 746 mmHg 61%
    21:00 +29°C° 0 mm 3 m/S 746 mmHg 71%
    22:00 +29°C° 0 mm 2 m/S 746 mmHg 75%
    23:00 +28°C° 0 mm 2 m/S 746 mmHg 79%

    27 November, Montag

    Zeit Temperatur Niederschläge Wind Luftdruck Luftfeuchtigkeit
    00:00 +27°C° 0 mm 2 m/S 746 mmHg 83%
    01:00 +27°C° 0 mm 2 m/S 746 mmHg 85%
    02:00 +27°C° 0 mm 2 m/S 745 mmHg 87%
    03:00 +27°C° 0 mm 2 m/S 745 mmHg 89%
    04:00 +26°C° 0 mm 1 m/S 746 mmHg 90%
    05:00 +26°C° 0 mm 1 m/S 746 mmHg 91%
    06:00 +24°C° 0 mm 0 m/S 746 mmHg 92%
    07:00 +28°C° 0,1 mm 1 m/S 747 mmHg 81%
    08:00 +30°C° 0,1 mm 1 m/S 747 mmHg 71%
    09:00 +32°C° 0,1 mm 1 m/S 748 mmHg 60%
    10:00 +34°C° 0 mm 1 m/S 747 mmHg 52%
    11:00 +36°C° 0 mm 1 m/S 747 mmHg 43%
    12:00 +39°C° 0 mm 1 m/S 746 mmHg 35%
    13:00 +39°C° 0 mm 1 m/S 745 mmHg 33%
    14:00 +39°C° 0 mm 1 m/S 744 mmHg 30%
    15:00 +39°C° 0 mm 2 m/S 744 mmHg 28%
    16:00 +37°C° 0 mm 2 m/S 744 mmHg 34%
    17:00 +35°C° 0 mm 2 m/S 744 mmHg 40%
    18:00 +34°C° 0 mm 3 m/S 745 mmHg 46%
    19:00 +31°C° 0 mm 3 m/S 745 mmHg 55%
    20:00 +30°C° 0 mm 3 m/S 746 mmHg 64%
    21:00 +29°C° 0 mm 3 m/S 746 mmHg 73%
    22:00 +28°C° 0 mm 3 m/S 746 mmHg 76%
    23:00 +28°C° 0 mm 2 m/S 746 mmHg 79%

    28 November, Dienstag

    Zeit Temperatur Niederschläge Wind Luftdruck Luftfeuchtigkeit
    00:00 +27°C° 0 mm 2 m/S 746 mmHg 81%
    01:00 +27°C° 0,1 mm 2 m/S 746 mmHg 84%
    02:00 +27°C° 0,1 mm 2 m/S 745 mmHg 86%
    03:00 +26°C° 0,1 mm 2 m/S 745 mmHg 89%
    04:00 +26°C° 0 mm 1 m/S 745 mmHg 90%
    05:00 +26°C° 0 mm 1 m/S 746 mmHg 91%
    06:00 +25°C° 0 mm 1 m/S 746 mmHg 92%
    07:00 +28°C° 0 mm 1 m/S 747 mmHg 82%
    08:00 +30°C° 0 mm 1 m/S 747 mmHg 71%
    09:00 +32°C° 0 mm 1 m/S 748 mmHg 61%
    10:00 +34°C° 0 mm 1 m/S 747 mmHg 53%
    11:00 +35°C° 0 mm 1 m/S 746 mmHg 46%
    12:00 +37°C° 0 mm 1 m/S 746 mmHg 38%
    13:00 +37°C° 0 mm 1 m/S 745 mmHg 35%
    14:00 +39°C° 0 mm 1 m/S 744 mmHg 32%
    15:00 +36°C° 0 mm 0 m/S 744 mmHg 30%
    16:00 +36°C° 0 mm 1 m/S 744 mmHg 34%
    17:00 +34°C° 0 mm 1 m/S 744 mmHg 39%
    18:00 +32°C° 0 mm 2 m/S 745 mmHg 43%
    19:00 +31°C° 0 mm 2 m/S 745 mmHg 52%
    20:00 +30°C° 0 mm 2 m/S 745 mmHg 61%
    21:00 +29°C° 0 mm 3 m/S 746 mmHg 70%
    22:00 +28°C° 0 mm 2 m/S 746 mmHg 73%
    23:00 +28°C° 0 mm 2 m/S 745 mmHg 76%

    29 November, Mittwoch

    Zeit Temperatur Niederschläge Wind Luftdruck Luftfeuchtigkeit
    00:00 +27°C° 0 mm 2 m/S 745 mmHg 79%
    01:00 +27°C° 0,1 mm 2 m/S 745 mmHg 81%
    02:00 +26°C° 0,1 mm 2 m/S 745 mmHg 83%
    03:00 +26°C° 0,1 mm 1 m/S 745 mmHg 85%
    04:00 +26°C° 0 mm 1 m/S 745 mmHg 86%
    05:00 +26°C° 0 mm 1 m/S 745 mmHg 87%
    06:00 +26°C° 0 mm 1 m/S 746 mmHg 88%
    07:00 +27°C° 0 mm 1 m/S 746 mmHg 78%
    08:00 +29°C° 0 mm 2 m/S 746 mmHg 68%
    09:00 +31°C° 0 mm 2 m/S 747 mmHg 58%
    10:00 +34°C° 0 mm 1 m/S 746 mmHg 49%
    11:00 +37°C° 0 mm 1 m/S 746 mmHg 41%
    12:00 +37°C° 0 mm 0 m/S 745 mmHg 32%
    13:00 +40°C° 0 mm 1 m/S 745 mmHg 31%
    14:00 +39°C° 0 mm 1 m/S 744 mmHg 31%
    15:00 +38°C° 0 mm 2 m/S 744 mmHg 30%
    16:00 +37°C° 0 mm 2 m/S 744 mmHg 36%
    17:00 +35°C° 0 mm 2 m/S 744 mmHg 42%
    18:00 +34°C° 0 mm 3 m/S 744 mmHg 48%
    19:00 +31°C° 0 mm 3 m/S 745 mmHg 57%
    20:00 +30°C° 0 mm 3 m/S 745 mmHg 66%
    21:00 +29°C° 0 mm 3 m/S 746 mmHg 75%
    22:00 +28°C° 0 mm 2 m/S 746 mmHg 77%
    23:00 +28°C° 0 mm 2 m/S 745 mmHg 79%
    Mehr zeigen